FW1075 Weather Reports


time (UTC)temp
C
wind
direction
speed
KPH
gust
KPH
rain 1hr
cm
rain 24hr
cm
rain mn
cm
humidity
%
barometer
mb
20260508012142 11 212 1.6 4.8 0.00 0.51 0.38 79 1007.5
20260508011123 11 110 1.6 4.8 0.00 0.51 0.38 77 1007.2
20260508010121 12 212 3.2 6.4 0.00 0.51 0.38 75 1007.1
20260508005143 12 190 1.6 4.8 0.00 0.51 0.38 73 1007.1
20260508004122 12 266 1.6 3.2 0.00 0.51 0.38 69 1006.9
20260508003123 13 257 0.0 4.8 0.00 0.51 0.38 56 1006.6
20260508002143 13 23 0.0 1.6 0.00 0.51 0.38 53 1006.5
20260508001122 14 73 1.6 3.2 0.00 0.51 0.38 48 1006.4
20260508000121 14 38 3.2 4.8 0.00 0.51 0.38 47 1006.4
20260507235122 15 320 3.2 4.8 0.00 0.51 0.38 46 1006.4
20260507234121 15 320 4.8 8.0 0.00 0.51 0.38 44 1006.1
20260507233121 16 288 6.4 12.9 0.00 0.51 0.38 43 1006.1
20260507232121 16 335 6.4 12.9 0.00 0.51 0.38 43 1006.0
20260507231122 16 307 6.4 9.7 0.00 0.51 0.38 42 1005.9
20260507230122 16 279 6.4 11.3 0.00 0.51 0.38 42 1005.9
20260507225122 16 323 6.4 9.7 0.00 0.51 0.38 42 1005.9
20260507224126 16 308 8.0 14.5 0.00 0.51 0.38 41 1005.8
20260507223121 17 297 8.0 12.9 0.00 0.51 0.38 41 1005.9
20260507222122 17 312 6.4 12.9 0.00 0.51 0.38 40 1005.9
20260507221121 17 296 8.0 16.1 0.00 0.51 0.38 39 1005.9
20260507220121 17 300 8.0 14.5 0.00 0.51 0.38 39 1005.8
20260507215125 18 298 6.4 17.7 0.00 0.51 0.38 39 1005.8
20260507214122 18 318 8.0 16.1 0.00 0.51 0.38 38 1005.7
20260507213123 18 328 9.7 17.7 0.00 0.51 0.38 39 1005.6
20260507212126 19 333 9.7 16.1 0.00 0.51 0.38 37 1005.6
20260507211122 20 337 8.0 16.1 0.00 0.51 0.38 36 1005.5
20260507210121 20 299 8.0 14.5 0.00 0.51 0.38 35 1005.7
20260507205121 20 270 9.7 19.3 0.00 0.51 0.38 35 1005.7
20260507204131 20 309 8.0 11.3 0.00 0.51 0.38 36 1005.6
20260507204122 20 311 8.0 11.3 0.00 0.51 0.38 36 1005.6
20260507203122 20 12 6.4 9.7 0.00 0.51 0.38 36 1005.7
20260507202122 21 28 6.4 9.7 0.00 0.51 0.38 36 1005.8
20260507201121 20 293 6.4 16.1 0.00 0.51 0.38 36 1005.6
20260507200124 20 313 8.0 11.3 0.00 0.51 0.38 37 1005.8
20260507195121 20 336 6.4 11.3 0.00 0.51 0.38 37 1005.8
20260507194121 20 35 6.4 11.3 0.00 0.51 0.38 37 1005.9
20260507193121 20 317 8.0 16.1 0.00 0.53 0.38 37 1006.0
20260507192121 20 355 6.4 12.9 0.00 0.56 0.38 37 1006.1
20260507191124 20 309 6.4 12.9 0.00 0.56 0.38 37 1006.2
20260507190121 20 103 6.4 11.3 0.00 0.56 0.38 37 1006.2
20260507185148 20 328 8.0 12.9 0.00 0.56 0.38 35 1006.4
20260507184121 19 74 8.0 20.9 0.00 0.56 0.38 38 1006.5
20260507183123 20 0 6.4 12.9 0.00 0.56 0.38 39 1006.6
20260507182122 20 302 8.0 16.1 0.00 0.56 0.38 37 1006.8
20260507181144 19 329 8.0 16.1 0.00 0.56 0.38 39 1007.1
20260507180122 19 297 6.4 12.9 0.00 0.56 0.38 39 1007.1
20260507175122 19 300 8.0 14.5 0.00 0.56 0.38 39 1007.2
20260507174122 19 326 4.8 9.7 0.00 0.56 0.38 41 1007.1
20260507173122 19 19 6.4 14.5 0.00 0.56 0.38 41 1007.2
20260507172144 18 29 6.4 9.7 0.00 0.58 0.38 43 1007.5
20260507171121 19 298 6.4 14.5 0.00 0.58 0.38 43 1007.6
20260507170121 18 302 8.0 14.5 0.00 0.58 0.38 44 1007.8
20260507165121 18 338 6.4 11.3 0.00 0.61 0.38 46 1007.8
20260507164124 18 310 6.4 12.9 0.00 0.61 0.38 50 1007.8
20260507163122 17 336 8.0 14.5 0.00 0.61 0.38 53 1008.1
20260507162144 18 302 6.4 16.1 0.00 0.61 0.38 53 1008.2
20260507161121 17 23 8.0 12.9 0.00 0.61 0.38 54 1008.5
20260507160121 18 329 4.8 14.5 0.00 0.61 0.38 55 1008.6
20260507155145 17 0 8.0 16.1 0.00 0.61 0.38 56 1008.6
20260507154122 17 337 6.4 11.3 0.00 0.61 0.38 60 1008.6
20260507153121 16 307 6.4 14.5 0.00 0.61 0.38 57 1008.8
20260507152121 16 322 6.4 14.5 0.00 0.61 0.38 60 1008.8
20260507151121 16 326 6.4 11.3 0.00 0.61 0.38 62 1008.9
20260507150121 15 321 4.8 9.7 0.00 0.61 0.38 67 1008.9
20260507145127 15 309 6.4 11.3 0.00 0.61 0.38 66 1009.1
20260507144123 15 314 6.4 11.3 0.00 0.61 0.38 68 1009.0
20260507143146 15 326 4.8 9.7 0.00 0.61 0.38 73 1008.9
20260507142124 14 314 4.8 9.7 0.00 0.61 0.38 78 1009.0
20260507141122 14 319 6.4 14.5 0.00 0.61 0.38 78 1009.0
20260507140122 13 336 4.8 9.7 0.00 0.61 0.38 83 1009.0
20260507135122 12 304 8.0 14.5 0.00 0.61 0.38 84 1009.0
20260507134122 13 316 6.4 12.9 0.00 0.61 0.38 80 1008.9
20260507133143 13 340 4.8 9.7 0.00 0.61 0.38 83 1009.0
20260507132121 12 235 4.8 6.4 0.00 0.61 0.38 87 1009.1
20260507131123 12 315 6.4 14.5 0.00 0.61 0.38 86 1009.2
20260507130126 12 317 8.0 12.9 0.00 0.61 0.38 88 1009.2
20260507125142 12 312 6.4 12.9 0.00 0.61 0.38 89 1009.1
20260507124121 11 323 4.8 11.3 0.00 0.61 0.38 94 1009.2
20260507123123 10 329 6.4 11.3 0.00 0.61 0.38 95 1009.1
20260507122123 10 307 6.4 11.3 0.00 0.61 0.38 95 1009.0
20260507121121 10 285 4.8 11.3 0.00 0.61 0.38 95 1008.9
20260507120129 10 302 4.8 9.7 0.00 0.61 0.38 95 1008.9
20260507115143 10 320 6.4 14.5 0.00 0.61 0.38 96 1008.7
20260507114121 10 287 4.8 9.7 0.00 0.61 0.38 98 1008.5
20260507113123 10 301 4.8 8.0 0.00 0.61 0.38 99 1008.6
20260507112121 10 321 3.2 8.0 0.00 0.61 0.38 99 1008.2
20260507111124 10 324 3.2 8.0 0.00 0.61 0.38 99 1008.2
20260507110123 10 305 6.4 9.7 0.00 0.61 0.38 99 1008.2
20260507105124 10 320 4.8 8.0 0.00 0.61 0.38 99 1008.2
20260507104125 9 315 6.4 11.3 0.00 0.61 0.38 99 1008.1
20260507103124 9 312 6.4 11.3 0.00 0.61 0.38 99 1008.0
20260507102121 9 295 4.8 11.3 0.00 0.61 0.38 99 1007.7
20260507101145 9 324 6.4 11.3 0.00 0.61 0.38 99 1007.5
20260507100147 9 306 6.4 9.7 0.00 0.61 0.38 99 1007.5
20260507095143 9 308 4.8 8.0 0.03 0.61 0.38 99 1007.5
20260507094145 9 324 4.8 9.7 0.03 0.61 0.38 99 1007.5
20260507093122 9 332 6.4 11.3 0.03 0.61 0.38 99 1007.2
20260507092121 9 312 4.8 8.0 0.03 0.61 0.38 99 1007.5
20260507091142 9 303 4.8 8.0 0.03 0.61 0.38 99 1007.4
20260507090121 9 309 6.4 12.9 0.03 0.61 0.38 99 1007.5
20260507085143 10 312 8.0 12.9 0.00 0.58 0.36 99 1007.5
20260507084125 10 331 8.0 14.5 0.00 0.58 0.36 99 1007.0
20260507083121 10 294 8.0 14.5 0.00 0.58 0.36 99 1007.2
20260507082121 10 315 8.0 14.5 0.00 0.58 0.36 99 1007.1
20260507081142 10 309 8.0 14.5 0.00 0.58 0.36 99 1007.2
20260507080122 10 352 6.4 12.9 0.03 0.58 0.36 99 1007.2
20260507075142 10 293 4.8 9.7 0.03 0.58 0.36 99 1007.4
20260507074142 10 321 4.8 12.9 0.10 0.58 0.36 99 1007.5
20260507073121 10 312 8.0 14.5 0.18 0.58 0.36 99 1007.2
20260507072142 10 320 6.4 14.5 0.25 0.58 0.36 99 1007.2
20260507071121 11 302 4.8 9.7 0.33 0.58 0.36 99 1007.1
20260507070125 11 296 6.4 11.3 0.33 0.56 0.33 99 1006.5
20260507065121 11 322 4.8 8.0 0.33 0.56 0.33 99 1006.5
20260507064124 11 321 4.8 9.7 0.25 0.48 0.25 99 1007.2
20260507063145 11 302 4.8 11.3 0.18 0.41 0.18 99 1006.8
20260507062121 11 273 4.8 8.0 0.10 0.33 0.10 99 1006.2
20260507061122 12 280 4.8 8.0 0.03 0.25 0.03 99 1006.8
20260507060122 12 292 4.8 11.3 0.00 0.23 0.00 97 1006.8
20260507055143 13 282 4.8 11.3 0.00 0.23 0.00 97 1006.8
20260507054123 13 310 3.2 6.4 0.00 0.23 0.00 99 1006.4
20260507053123 13 8 3.2 6.4 0.00 0.23 0.00 99 1006.2
20260507052121 13 303 3.2 9.7 0.00 0.23 0.00 99 1006.4
20260507051121 13 285 3.2 6.4 0.00 0.23 0.00 99 1006.5
20260507050142 13 281 3.2 8.0 0.00 0.23 0.00 99 1006.4
20260507045121 13 284 3.2 6.4 0.00 0.23 0.00 99 1006.4
20260507044142 13 285 3.2 6.4 0.00 0.23 0.00 99 1006.7
20260507043125 13 295 3.2 4.8 0.00 0.23 0.00 99 1007.0
20260507042123 13 294 3.2 6.4 0.00 0.23 0.00 99 1006.8
20260507041124 13 281 3.2 4.8 0.00 0.23 0.00 99 1006.9
20260507040121 13 295 3.2 9.7 0.00 0.23 0.00 99 1006.7
20260507035121 13 320 3.2 4.8 0.03 0.23 0.23 99 1006.7
20260507034145 13 288 4.8 8.0 0.03 0.23 0.23 99 1006.7
20260507033121 13 299 3.2 8.0 0.03 0.23 0.23 99 1006.6
20260507032142 13 280 6.4 11.3 0.03 0.23 0.23 99 1006.4
20260507031121 13 320 6.4 9.7 0.05 0.23 0.23 99 1006.5
20260507030143 14 334 6.4 9.7 0.08 0.23 0.23 99 1006.5
20260507025123 14 0 1.6 4.8 0.05 0.20 0.20 99 1006.6
20260507024121 14 203 0.0 0.0 0.05 0.20 0.20 99 1006.6
20260507023122 14 338 0.0 0.0 0.10 0.20 0.20 99 1006.8
20260507022123 14 265 3.2 6.4 0.10 0.20 0.20 99 1006.6
20260507021123 14 95 1.6 6.4 0.08 0.18 0.18 99 1006.0
20260507020122 14 96 0.0 3.2 0.05 0.15 0.15 99 1006.0
20260507015143 14 158 0.0 0.0 0.05 0.15 0.15 99 1006.4
20260507014122 14 207 1.6 3.2 0.05 0.15 0.15 99 1006.6
20260507013143 14 220 1.6 3.2 0.00 0.10 0.10 99 1006.2